USA 134

Last updated on Tue Jul 01 2025 00:02:43 GMT+0000 (Coordinated Universal Time)

1 25019U 97065A 25181.41053149 -.00000069 00000+0 00000+0 0 9992 2 25019 12.3627 24.2785 0001925 352.1101 297.7376 1.00275407 29422
UTC large
Height (km)
Speed (km/s)
/
Latitude / Longitude
Inclination (degrees)
Orbital Period (minutes)
Azimuth
Elevation
Range (km)
Doppler Factor

Next 0 passes for location: London (51.5072 / 0.1276)

Sorry there are no passes over London.